This is the latest recevied weather packets stored in our database for station/object MB7UUE. If no packets are shown the sender has not sent any weather packets the latest 10 day(s).
| Time | Temp. | Humidity | Pressure | Rain* | Wind** | Luminosity | Snow |
|---|---|---|---|---|---|---|---|
| 1787743318 | 23.33° C | 69% | 1012.9 hPa | 0 mm | - | - | - |
| 1787742178 | 23.33° C | 69% | 1013 hPa | 0 mm | - | - | - |
| 1787741037 | 22.78° C | 70% | 1013.1 hPa | 0 mm | - | - | - |
| 1787739898 | 22.78° C | 73% | 1013.2 hPa | 0 mm | - | - | - |
| 1787738758 | 22.22° C | 75% | 1013.2 hPa | 0 mm | - | - | - |
| 1787737618 | 21.67° C | 75% | 1013 hPa | 0 mm | - | - | - |
| 1787736478 | 21.67° C | 82% | 1013 hPa | 0 mm | - | - | - |
| 1787735338 | 21.11° C | 82% | 1013.1 hPa | 0 mm | - | - | - |
| 1787734197 | 21.11° C | 82% | 1013.2 hPa | 0 mm | - | - | - |
| 1787733058 | 20.56° C | 86% | 1013.1 hPa | 0 mm | - | - | - |
| 1787731918 | 20° C | 87% | 1012.9 hPa | 0 mm | - | - | - |
| 1787730778 | 20° C | 88% | 1012.8 hPa | 0 mm | - | - | - |
| 1787729638 | 19.44° C | 87% | 1012.8 hPa | 0 mm | - | - | - |
| 1787728497 | 19.44° C | 89% | 1012.8 hPa | 0 mm | - | - | - |
| 1787727357 | 18.89° C | 89% | 1012.7 hPa | 0 mm | - | - | - |
| 1787726217 | 18.33° C | 89% | 1012.6 hPa | 0 mm | - | - | - |
| 1787725079 | 18.33° C | 89% | 1012.6 hPa | 0 mm | - | - | - |
| 1787723937 | 18.33° C | 89% | 1012.4 hPa | 0 mm | - | - | - |
| 1787722798 | 18.33° C | 89% | 1012.3 hPa | 0 mm | - | - | - |
| 1787721658 | 18.33° C | 89% | 1012.1 hPa | 0.25 mm | - | - | - |
| 1787720517 | 18.33° C | 88% | 1012.1 hPa | 0.51 mm | - | - | - |
| 1787719378 | 18.33° C | 88% | 1012 hPa | 0.76 mm | - | - | - |
| 1787718238 | 18.33° C | 84% | 1011.7 hPa | 1.27 mm | - | - | - |
| 1787717097 | 18.33° C | 84% | 1011.6 hPa | 1.52 mm | - | - | - |
| 1787715958 | 18.89° C | 83% | 1011.7 hPa | 1.02 mm | - | - | - |
* Rain latest hour (hover to see other rain measurements)
** Current wind speed in m/s (hover to see current wind gust speed)